User: anonymous   Login
Location: Unspecified
(0.0000°N, 0.0000°E)
Time: 01:08:15
(UTC+00:00)
Language:

BEIDOU 3M9 - Orbit

View from above orbital plane
View from above orbital plane
View from above satellite
View from above satellite

Ground track
Ground track

The orbit is defined by the following mean orbital elements,

1 43581U          26145.01805365 +.00000000 +00000-0 +00000-0 0 00000
2 43581  54.0837 183.0913 0005266 288.8293  71.1823  1.86228616    06
Epoch (UTC): 25 May 2026 00:25:59
Eccentricity: 0.0005266
inclination: 54.0837°
perigee height: 21514 km
apogee height: 21543 km
right ascension of ascending node: 183.0913°
argument of perigee: 288.8293°
revolutions per day: 1.86228616
mean anomaly at epoch: 71.1823°

The dashed part of the orbit path shows where the satellite is in the earth's shadow,  

DLR